Location: Vsetin
(49.3330°N, 18.0000°E)
Time: 20:07:41
(UTC+01:00)

ISS - Visible Passes

Search period start: 23 February 2019 00:00
Search period end: 05 March 2019 00:00
Orbit: 403 x 411 km, 51.6° (Epoch: 24 February)

Date Brightness Start Highest point End Pass type
(mag) Time Alt. Az. Time Alt. Az. Time Alt. Az.
24 Feb -1.3 05:43:50 10° S 05:46:20 20° SE 05:48:49 10° E visible
25 Feb -0.9 04:53:37 10° SSE 04:55:07 13° SE 04:56:37 10° ESE visible
26 Feb -2.5 05:36:39 10° SW 05:39:43 38° SSE 05:42:48 10° E visible
27 Feb -1.9 04:47:00 18° S 04:48:24 25° SE 04:51:08 10° E visible
28 Feb -1.1 03:57:47 15° ESE 03:57:47 15° ESE 03:59:11 10° E visible
28 Feb -3.6 05:30:30 14° WSW 05:33:12 70° SSE 05:36:28 10° ENE visible
01 Mar -3.1 04:41:11 41° S 04:41:46 46° SSE 04:44:56 10° ENE visible
02 Mar -1.4 03:51:47 21° ESE 03:51:47 21° ESE 03:53:17 10° E visible
02 Mar -3.8 05:24:29 19° W 05:26:43 76° NNW 05:30:00 10° ENE visible
03 Mar -4.0 04:35:01 76° SSW 04:35:12 82° SSE 04:38:29 10° ENE visible
04 Mar -1.4 03:45:29 23° E 03:45:29 23° E 03:46:56 10° ENE visible
04 Mar -3.5 05:18:11 20° W 05:20:16 58° N 05:23:31 10° ENE visible
